Meknes, Morocco

8:55 PM WEST on September 25, 2017 (GMT +0100)
Meknes

Weather History for GMFM - February, 2013

Change the Weather History Date:

Sunday, February 17, 2013

  Actual Average (GMFF) Record (GMFF)
Temperature  
Mean Temperature 56 °F -  
Max Temperature 66 °F 64 °F 72 °F (2017)
Min Temperature 47 °F 44 °F 26 °F (1999)
Degree Days  
Heating Degree Days 8    
Growing Degree Days 6 (Base 50)    
Moisture  
Dew Point 41 °F    
Average Humidity 57    
Maximum Humidity 94    
Minimum Humidity 31    
Precipitation  
Precipitation 0.00 in 0.11 in - ()
Sea Level Pressure  
Sea Level Pressure 30.05 in    
Wind  
Wind Speed 5 mph ()    
Max Wind Speed 12 mph    
Max Gust Speed -    
Visibility 5.3 miles    
Events      
Averages and records for this station are not official NWS values.
T = Trace of Precipitation, MM = Missing Value Source: Averaged Metar Reports

Daily Weather History Graph

Daily Weather History Graph

Search for Another Location

Airport or City:

Trip Planner

Search our weather history database for the weather conditions in past years. The results will help you decide how hot, cold, wet, or windy it might be!

Date:

Astronomy

Feb. 17, 2013 Rise Set
Actual Time 7:04 AM WET 6:08 PM WET
Civil Twilight 6:39 AM WET 6:33 PM WET
Nautical Twilight 6:09 AM WET 7:02 PM WET
Astronomical Twilight 5:40 AM WET 7:31 PM WET
Moon 11:09 AM WET (2/17) 12:30 AM WET (2/17)
Length of Visible Light 11h 54m
Length of Day
11h 03m
Waxing Crescent, 47% of the Moon is Illuminated
Feb 17
Waxing Crescent
Feb 17
First Quarter
Feb 25
Full
Mar 4
Last Quarter
Mar 11
New

Hourly Weather History & Observations

Time (WET) Temp. Dew Point Humidity Pressure Visibility Wind Dir Wind Speed Gust Speed Precip Events Conditions
12:00 AM 47 °F 41 °F 73% 30.11 in 6 mi Calm Calm - -   Clear
1:00 AM 50.0 °F 48.2 °F 94% 30.12 in - Calm Calm - N/A   Clear
2:00 AM 50.0 °F 37.4 °F 62% 30.06 in - South 5.8 mph - N/A   Clear
3:00 AM 50 °F 38 °F 52% 30.06 in 6 mi South 8.1 mph - -  
3:00 AM 50.0 °F 37.4 °F 62% 30.04 in - South 8.1 mph - N/A   Clear
4:00 AM 50.0 °F 37.4 °F 62% 30.04 in - South 6.9 mph - N/A   Clear
5:00 AM 50.0 °F 37.4 °F 62% 30.04 in - South 6.9 mph - N/A   Clear
6:00 AM 50.0 °F 35.6 °F 58% 30.04 in - South 5.8 mph - N/A   Clear
7:00 AM 51.8 °F 33.8 °F 50% 30.04 in - South 6.9 mph - N/A   Clear
8:00 AM 51.8 °F 33.8 °F 50% 30.06 in - South 8.1 mph - N/A   Clear
9:00 AM 57 °F 36 °F 34% 30.05 in 6 mi SSW 10.4 mph - -   Clear
9:00 AM 57.2 °F 35.6 °F 44% 30.06 in - SSW 10.4 mph - N/A   Clear
10:00 AM 62.6 °F 39.2 °F 42% 30.06 in - SW 10.4 mph - N/A   Clear
11:00 AM 64.4 °F 39.2 °F 40% 30.06 in - SW 6.9 mph - N/A   Clear
12:00 PM 62 °F 47 °F 48% 30.05 in 5 mi NW 11.5 mph - -   Overcast
12:00 PM 62.6 °F 48.2 °F 59% 30.09 in 5.0 mi NW 11.5 mph - N/A   Unknown
1:00 PM 62.6 °F 42.8 °F 48% 30.06 in 5.0 mi West 9.2 mph - N/A   Unknown
2:00 PM 60.8 °F 42.8 °F 52% 30.04 in 5.0 mi West 8.1 mph - N/A   Unknown
3:00 PM 62 °F 43 °F 39% 30.01 in 5 mi WNW 3.5 mph - -   Overcast
3:00 PM 62.6 °F 42.8 °F 48% 30.04 in 5.0 mi WNW 3.5 mph - N/A   Unknown
4:00 PM 64.4 °F 46.4 °F 52% 30.01 in 5.0 mi Calm Calm - N/A   Unknown
5:00 PM 64.4 °F 39.2 °F 40% 30.01 in 5.0 mi SSW 5.8 mph - N/A   Unknown
6:00 PM 62 °F 39 °F 31% 29.98 in 5 mi West 5.8 mph - -   Mostly Cloudy
6:00 PM 62.6 °F 39.2 °F 42% 30.01 in 5.0 mi West 5.8 mph - N/A   Unknown
7:00 PM 55.4 °F 46.4 °F 72% 30.01 in 5.0 mi West 4.6 mph - N/A   Unknown
8:00 PM 53.6 °F 44.6 °F 72% 30.01 in - WSW 2.3 mph - N/A   Clear
9:00 PM 51 °F 45 °F 72% 30.05 in 6 mi West 2.3 mph - -   Scattered Clouds
9:00 PM 50.0 °F 44.6 °F 82% 30.04 in - West 2.3 mph - N/A   Clear
10:00 PM 50.0 °F 42.8 °F 76% 30.06 in - West 2.3 mph - N/A   Clear
11:00 PM 48.2 °F 42.8 °F 82% 30.06 in - SW 3.5 mph - N/A   Clear